Saginaw Browne, MI

1:30 PM EDT on June 23, 2017 (GMT -0400)
Saginaw County-Browne

Weather History for KHYX - November, 2012

Change the Weather History Date:

Monday, November 5, 2012

  Actual Average (KMBS) Record (KMBS)
Temperature  
Mean Temperature 32 °F -  
Max Temperature 37 °F 48 °F 74 °F (2015)
Min Temperature 28 °F 32 °F 26 °F (2012)
Degree Days  
Heating Degree Days 32    
Moisture  
Dew Point 30 °F    
Average Humidity 87    
Maximum Humidity 100    
Minimum Humidity 75    
Precipitation  
Precipitation 0.00 in - - ()
Sea Level Pressure  
Sea Level Pressure 30.19 in    
Wind  
Wind Speed 4 mph (North)    
Max Wind Speed 13 mph    
Max Gust Speed -    
Visibility 10 miles    
Events      
Averages and records for this station are not official NWS values.
T = Trace of Precipitation, MM = Missing Value Source: NWS Daily Summary

Daily Weather History Graph

Daily Weather History Graph

Search for Another Location

Airport or City:

Trip Planner

Search our weather history database for the weather conditions in past years. The results will help you decide how hot, cold, wet, or windy it might be!

Date:

Astronomy

Nov. 05, 2012 Rise Set
Actual Time 7:16 AM EST 5:20 PM EST
Civil Twilight 6:46 AM EST 5:50 PM EST
Nautical Twilight 6:12 AM EST 6:24 PM EST
Astronomical Twilight 5:39 AM EST 6:58 PM EST
Moon 10:57 PM EST (11/5) 12:35 PM EST (11/5)
Length of Visible Light 11h 04m
Length of Day
10h 04m
Waning Gibbous, 63% of the Moon is Illuminated
Nov 5
Waning Gibbous
Nov 6
Last Quarter
Nov 13
New
Nov 20
First Quarter
Nov 28
Full

Hourly Weather History & Observations

Time (EST) Temp. Windchill Dew Point Humidity Pressure Visibility Wind Dir Wind Speed Gust Speed Precip Events Conditions
12:12 AM 28.4 °F - 26.6 °F 93% 30.17 in 10.0 mi Calm Calm - N/A   Scattered Clouds
12:32 AM 30.2 °F - 26.6 °F 86% 30.17 in 10.0 mi Calm Calm - N/A   Scattered Clouds
12:52 AM 28.4 °F 23.3 °F 26.6 °F 93% 30.18 in 10.0 mi North 4.6 mph - N/A   Mostly Cloudy
1:12 AM 30.2 °F 26.7 °F 28.4 °F 93% 30.18 in 10.0 mi NNW 3.5 mph - N/A   Mostly Cloudy
1:33 AM 28.4 °F 24.6 °F 26.6 °F 93% 30.18 in 10.0 mi WNW 3.5 mph - N/A   Mostly Cloudy
1:53 AM 30.2 °F 26.7 °F 28.4 °F 93% 30.18 in 10.0 mi WNW 3.5 mph - N/A   Mostly Cloudy
2:13 AM 30.2 °F 26.7 °F 28.4 °F 93% 30.18 in 10.0 mi WNW 3.5 mph - N/A   Overcast
2:33 AM 30.2 °F 26.7 °F 28.4 °F 93% 30.19 in 10.0 mi WNW 3.5 mph - N/A   Overcast
2:53 AM 32.0 °F 28.7 °F 30.2 °F 93% 30.19 in 10.0 mi NW 3.5 mph - N/A   Overcast
3:13 AM 32.0 °F 28.7 °F 30.2 °F 93% 30.19 in 10.0 mi WNW 3.5 mph - N/A   Overcast
3:33 AM 30.2 °F 26.7 °F 28.4 °F 93% 30.19 in 10.0 mi NW 3.5 mph - N/A   Overcast
3:53 AM 30.2 °F 26.7 °F 28.4 °F 93% 30.19 in 10.0 mi NW 3.5 mph - N/A   Overcast
4:13 AM 30.2 °F 26.7 °F 28.4 °F 93% 30.19 in 10.0 mi NW 3.5 mph - N/A   Mostly Cloudy
4:34 AM 28.4 °F 24.6 °F 28.4 °F 100% 30.19 in 10.0 mi NW 3.5 mph - N/A   Mostly Cloudy
4:54 AM 30.2 °F 26.7 °F 28.4 °F 93% 30.19 in 10.0 mi WNW 3.5 mph - N/A   Overcast
5:14 AM 30.2 °F 26.7 °F 28.4 °F 93% 30.19 in 10.0 mi WNW 3.5 mph - N/A   Overcast
5:34 AM 30.2 °F 26.7 °F 28.4 °F 93% 30.19 in 10.0 mi WNW 3.5 mph - N/A   Overcast
5:54 AM 30.2 °F 26.7 °F 28.4 °F 93% 30.20 in 10.0 mi NW 3.5 mph - N/A   Overcast
6:14 AM 30.2 °F 26.7 °F 30.2 °F 100% 30.20 in 10.0 mi NW 3.5 mph - N/A   Overcast
6:34 AM 30.2 °F 26.7 °F 30.2 °F 100% 30.20 in 10.0 mi NW 3.5 mph - N/A   Overcast
6:54 AM 30.2 °F 25.4 °F 28.4 °F 93% 30.21 in 10.0 mi NNW 4.6 mph - N/A   Scattered Clouds
7:14 AM 28.4 °F 24.6 °F 28.4 °F 100% 30.21 in 10.0 mi NW 3.5 mph - N/A   Clear
7:29 AM 30.2 °F 26.7 °F 28.4 °F 93% 30.21 in 10.0 mi NW 3.5 mph - N/A   Mostly Cloudy
7:49 AM 30.2 °F 26.7 °F 30.2 °F 100% 30.21 in 10.0 mi NNW 3.5 mph - N/A   Overcast
8:10 AM 32.0 °F - 30.2 °F 93% 30.22 in 10.0 mi Calm Calm - N/A   Overcast
8:30 AM 32.0 °F 28.7 °F 32.0 °F 100% 30.22 in 10.0 mi North 3.5 mph - N/A   Overcast
8:50 AM 32.0 °F - 32.0 °F 100% 30.22 in 10.0 mi Calm Calm - N/A   Mostly Cloudy
9:10 AM 33.8 °F 29.6 °F 32.0 °F 93% 30.22 in 10.0 mi North 4.6 mph - N/A   Overcast
9:30 AM 33.8 °F 27.7 °F 32.0 °F 93% 30.22 in 10.0 mi North 6.9 mph - N/A   Overcast
9:50 AM 33.8 °F 27.0 °F 32.0 °F 93% 30.23 in 10.0 mi North 8.1 mph - N/A   Overcast
10:10 AM 35.6 °F 29.2 °F 32.0 °F 87% 30.23 in 10.0 mi North 8.1 mph - N/A   Overcast
10:30 AM 35.6 °F 29.2 °F 32.0 °F 87% 30.23 in 10.0 mi North 8.1 mph - N/A   Overcast
10:50 AM 35.6 °F 28.0 °F 32.0 °F 87% 30.23 in 10.0 mi North 10.4 mph - N/A   Overcast
11:10 AM 35.6 °F 28.6 °F 32.0 °F 87% 30.23 in 10.0 mi North 9.2 mph - N/A   Overcast
11:31 AM 37.4 °F 30.3 °F 32.0 °F 81% 30.23 in 10.0 mi North 10.4 mph - N/A   Overcast
11:51 AM 37.4 °F 29.8 °F 30.2 °F 75% 30.22 in 10.0 mi NNE 11.5 mph - N/A   Overcast
12:11 PM 37.4 °F 29.3 °F 30.2 °F 75% 30.22 in 10.0 mi NNE 12.7 mph - N/A   Overcast
12:31 PM 37.4 °F 30.8 °F 30.2 °F 75% 30.21 in 10.0 mi North 9.2 mph - N/A   Overcast
12:51 PM 37.4 °F 29.8 °F 30.2 °F 75% 30.21 in 10.0 mi NNE 11.5 mph - N/A   Overcast
1:11 PM 37.4 °F 30.8 °F 30.2 °F 75% 30.21 in 10.0 mi NNE 9.2 mph - N/A   Overcast
1:31 PM 37.4 °F 31.4 °F 30.2 °F 75% 30.21 in 10.0 mi NNE 8.1 mph - N/A   Overcast
1:51 PM 37.4 °F 30.8 °F 30.2 °F 75% 30.20 in 10.0 mi North 9.2 mph - N/A   Overcast
2:11 PM 37.4 °F 30.3 °F 30.2 °F 75% 30.19 in 10.0 mi NNE 10.4 mph - N/A   Overcast
2:32 PM 37.4 °F 29.8 °F 30.2 °F 75% 30.19 in 10.0 mi North 11.5 mph - N/A   Overcast
2:52 PM 37.4 °F 31.4 °F 30.2 °F 75% 30.19 in 10.0 mi North 8.1 mph - N/A   Overcast
3:12 PM 37.4 °F 31.4 °F 30.2 °F 75% 30.18 in 10.0 mi NNE 8.1 mph - N/A   Overcast
3:32 PM 37.4 °F 32.1 °F 30.2 °F 75% 30.18 in 10.0 mi NNE 6.9 mph - N/A   Overcast
3:52 PM 37.4 °F 31.4 °F 30.2 °F 75% 30.18 in 10.0 mi NNE 8.1 mph - N/A   Overcast
4:12 PM 35.6 °F 29.2 °F 30.2 °F 81% 30.19 in 10.0 mi NNE 8.1 mph - N/A   Overcast
4:32 PM 35.6 °F 29.9 °F 30.2 °F 81% 30.19 in 10.0 mi NNE 6.9 mph - N/A   Overcast
4:52 PM 35.6 °F 30.7 °F 30.2 °F 81% 30.19 in 10.0 mi North 5.8 mph - N/A   Overcast
5:12 PM 35.6 °F 30.7 °F 30.2 °F 81% 30.18 in 10.0 mi NNE 5.8 mph - N/A   Overcast
5:33 PM 35.6 °F 30.7 °F 30.2 °F 81% 30.19 in 10.0 mi North 5.8 mph - N/A   Overcast
5:53 PM 35.6 °F 30.7 °F 30.2 °F 81% 30.19 in 10.0 mi NNE 5.8 mph - N/A   Overcast
6:13 PM 35.6 °F - 30.2 °F 81% 30.19 in 10.0 mi Calm Calm - N/A   Overcast
6:33 PM 35.6 °F 31.7 °F 30.2 °F 81% 30.19 in 10.0 mi North 4.6 mph - N/A   Overcast
6:53 PM 33.8 °F 30.8 °F 28.4 °F 81% 30.19 in 10.0 mi NNW 3.5 mph - N/A   Overcast
7:13 PM 33.8 °F 30.8 °F 30.2 °F 87% 30.19 in 10.0 mi NNE 3.5 mph - N/A   Overcast
7:33 PM 33.8 °F - 28.4 °F 81% 30.19 in 10.0 mi Calm Calm - N/A   Overcast
7:53 PM 33.8 °F - 30.2 °F 87% 30.19 in 10.0 mi Calm Calm - N/A   Overcast
8:13 PM 33.8 °F - 30.2 °F 87% 30.18 in 10.0 mi Calm Calm - N/A   Overcast
8:34 PM 33.8 °F - 30.2 °F 87% 30.18 in 10.0 mi Calm Calm - N/A   Overcast
8:54 PM 33.8 °F - 30.2 °F 87% 30.18 in 10.0 mi Calm Calm - N/A   Overcast
9:14 PM 33.8 °F - 28.4 °F 81% 30.18 in 10.0 mi Calm Calm - N/A   Mostly Cloudy
9:34 PM 33.8 °F - 28.4 °F 81% 30.18 in 10.0 mi Calm Calm - N/A   Clear
9:54 PM 33.8 °F - 28.4 °F 81% 30.18 in 10.0 mi Calm Calm - N/A   Clear
10:14 PM 32.0 °F - 28.4 °F 87% 30.18 in 10.0 mi Calm Calm - N/A   Clear
10:34 PM 32.0 °F - 28.4 °F 87% 30.18 in 10.0 mi Calm Calm - N/A   Scattered Clouds
10:49 PM 32.0 °F - 28.4 °F 87% 30.17 in 10.0 mi Calm Calm - N/A   Mostly Cloudy
11:09 PM 32.0 °F - 28.4 °F 87% 30.17 in 10.0 mi Calm Calm - N/A   Overcast
11:30 PM 32.0 °F - 30.2 °F 93% 30.17 in 10.0 mi Calm Calm - N/A   Overcast
11:50 PM 32.0 °F - 30.2 °F 93% 30.17 in 10.0 mi Calm Calm - N/A   Overcast